Нерпо

Россия / Иркутская область     57°28′34″N   115°18′54″E
темп.,
°C
ветер,
м/с
пор.,
м/с
влажн.,
%
обл.,
%
осадки,
мм/ч
давл.,
гПа
погр.,
м
10 мая, пн
пн1023:00−1з1195100 0.0 101410
02:00−2зсз0095100 0.0 101410
05:00−2сз009790 0.0 101518
08:00+3с128278 0.0 1013359
11:00+6с2375100 0.1 1012904
14:00+6с3476100 0.4 1012952
17:00+7сз2378100 0.3 1012695
20:00+2з2195100 0.5 101414
11 мая, вт
вт1123:000з219693 0.1 101416
02:00+2з1195100 0.1 101417
05:00+2з1197100 0.0 101330
08:00+4зсз1194100 0.1 1013283
11:00+5с1288100 0.3 1012632
14:00+3ссв1298100 1.6 1013548
17:00+2ссз1398100 1.9 1014346
20:00+2с1297100 2.5 1014147
12 мая, ср
ср1223:00+1ссз1299100 0.1 1014230
02:00+1ссз12100100 1.2 1013121
05:00+1сз1299100 1.9 101295
08:00+1сз1296100 2.8 1012247
11:00+2ссз2392100 1.4 1011498
14:00+3сз2490100 2.7 1011611
17:00+2ссз2499100 2.4 1011213
20:000ссз3599100 4.9 1013234
13 мая, чт
чт1323:00−1сз2498100 1.4 1013285
02:00−1сз2798100 2.8 1013523
05:00−1сз2698100 2.3 1013483
08:000ссз3794100 4.0 1014665
11:00+1ссз3793100 1.6 1015784
14:00+1ссз3691100 3.0 1015783
17:00+1ссз2494100 1.1 1016468
20:000сз1199100 1.8 101643
14 мая, пт
пт1423:00−3з119784 0.1 101724
02:00−4зюз1195100 0.1 101718
05:00−3зюз119395 0.0 101668
08:00+1всв0186100 0.0 1014376
11:00+4ссв1275100 0.0 1013928
14:00+6зсз127089 0.2 10111010
17:00+6з127292 0.3 1010657
20:00+2зюз219368 0.3 101114